PE1BMM-13 Weather Reports


time (UTC)temp
F
wind
direction
speed
knots
gust
knots
rain 1hr
in
rain 24hr
in
rain mn
in
humidity
%
barometer
mb
20260507073234 55 32 1.7 7.0 0.00 0.00 0.00 71 1016.3
20260507072604 55 134 1.7 6.1 0.00 0.00 0.00 74 1016.3
20260507072106 55 133 1.7 6.1 0.00 0.00 0.00 74 1016.3
20260507072010 55 113 1.7 7.0 0.00 0.00 0.00 74 1016.2
20260507071933 54 108 1.7 3.5 0.00 0.00 0.00 76 1016.2
20260507071715 54 87 1.7 7.0 0.00 0.00 0.00 75 1016.2
20260507071229 54 335 1.7 7.0 0.00 0.00 0.00 76 1016.1
20260507070559 54 122 1.7 4.3 0.00 0.00 0.00 77 1016.1
20260507070100 53 122 1.7 4.3 0.00 0.00 0.00 78 1016.2
20260507070011 53 8 1.7 4.3 0.00 0.00 0.00 78 1016.2
20260507065600 53 326 1.7 3.5 0.00 0.00 0.00 78 1016.2
20260507065101 53 354 1.7 3.5 0.00 0.00 0.00 79 1016.2
20260507065008 53 354 1.7 3.5 0.00 0.00 0.00 80 1016.2
20260507064559 52 45 1.7 3.5 0.00 0.00 0.00 79 1016.1
20260507064100 52 357 0.9 4.3 0.00 0.00 0.00 80 1016.2
20260507064009 52 85 0.9 4.3 0.00 0.00 0.00 80 1016.1
20260507063600 52 10 0.9 4.3 0.00 0.00 0.00 80 1016.2
20260507063455 52 17 0.9 4.3 0.00 0.00 0.00 81 1016.1
20260507063233 52 5 0.9 4.3 0.00 0.00 0.00 80 1016.1
20260507062600 51 27 0.9 2.6 0.00 0.00 0.00 82 1016.1
20260507062054 51 356 0.9 3.5 0.00 0.00 0.00 82 1016.1
20260507062008 51 356 0.9 4.3 0.00 0.00 0.00 82 1016.1
20260507061556 50 355 0.9 4.3 0.00 0.00 0.00 82 1016.1
20260507061056 50 9 1.7 4.3 0.00 0.00 0.00 82 1015.9
20260507061008 50 5 0.9 3.5 0.00 0.00 0.00 83 1016.0
20260507060554 50 3 1.7 3.5 0.00 0.00 0.00 83 1016.0
20260507060055 49 22 1.7 4.3 0.00 0.00 0.00 83 1016.0
20260507060008 49 22 1.7 4.3 0.00 0.00 0.00 83 1016.0
20260507055556 49 354 1.7 4.3 0.00 0.00 0.00 83 1015.9
20260507055055 49 0 1.7 6.1 0.00 0.00 0.00 83 1015.9
20260507055009 49 12 1.7 6.1 0.00 0.00 0.00 83 1015.9
20260507054555 49 12 0.9 6.1 0.00 0.00 0.00 83 1015.9
20260507054056 48 7 0.9 3.5 0.00 0.00 0.00 84 1015.9
20260507054008 48 6 0.9 3.5 0.00 0.00 0.00 84 1015.9
20260507053552 48 6 0.9 2.6 0.00 0.00 0.00 85 1015.7
20260507053051 47 6 0.9 2.6 0.00 0.00 0.00 86 1015.7
20260507053009 47 6 0.9 2.6 0.00 0.00 0.00 86 1015.7
20260507052550 47 6 0.0 2.6 0.00 0.00 0.00 87 1015.6
20260507052051 47 6 0.0 0.0 0.00 0.00 0.00 88 1015.7
20260507052009 47 6 0.0 0.0 0.00 0.00 0.00 88 1015.7
20260507051550 46 6 0.0 0.0 0.00 0.00 0.00 89 1015.5
20260507051052 46 6 0.0 0.0 0.00 0.00 0.00 89 1015.5
20260507051009 45 6 0.0 0.0 0.00 0.00 0.00 89 1015.5
20260507050550 45 6 0.0 0.0 0.00 0.00 0.00 90 1015.5
20260507050050 44 6 0.0 1.7 0.00 0.00 0.00 90 1015.4
20260507050003 44 6 0.0 1.7 0.00 0.00 0.00 90 1015.4
20260507045550 44 6 0.0 1.7 0.00 0.00 0.00 91 1015.4
20260507045442 44 6 0.9 2.6 0.00 0.00 0.00 91 1015.3
20260507045225 44 6 0.9 2.6 0.00 0.00 0.00 91 1015.3
20260507044551 43 6 0.9 2.6 0.00 0.00 0.00 91 1015.2
20260507044048 43 6 0.0 1.7 0.00 0.00 0.00 91 1015.3
20260507044003 43 6 0.0 1.7 0.00 0.00 0.00 91 1015.3
20260507043546 43 6 0.0 1.7 0.00 0.00 0.00 91 1015.2
20260507043046 43 6 0.0 1.7 0.00 0.00 0.00 91 1015.1
20260507043006 43 6 0.0 1.7 0.00 0.00 0.00 91 1015.1
20260507042547 42 6 0.0 1.7 0.00 0.00 0.00 91 1015.1
20260507042047 42 6 0.0 0.9 0.00 0.00 0.00 91 1015.0
20260507042001 42 6 0.0 0.9 0.00 0.00 0.00 91 1015.0
20260507041541 42 6 0.0 0.0 0.00 0.00 0.00 91 1015.0
20260507041035 42 6 0.0 0.9 0.00 0.00 0.00 91 1015.1
20260507041001 42 6 0.0 0.9 0.00 0.00 0.00 91 1015.1
20260507040529 42 6 0.0 1.7 0.00 0.00 0.00 91 1015.0
20260507040023 42 6 0.0 1.7 0.00 0.00 0.00 91 1015.1
20260507040000 42 6 0.0 1.7 0.00 0.00 0.00 91 1015.1
20260507035517 42 6 0.0 1.7 0.00 0.00 0.00 91 1015.1
20260507035011 42 6 0.0 1.7 0.00 0.00 0.00 91 1014.9
20260507035000 42 6 0.0 1.7 0.00 0.00 0.00 91 1014.9
20260507034505 42 6 0.0 0.0 0.00 0.00 0.00 91 1014.9
20260507034000 42 6 0.0 0.0 0.00 0.00 0.00 91 1014.8
20260507033453 42 6 0.0 0.0 0.00 0.00 0.00 91 1014.9
20260507032947 42 6 0.0 0.0 0.00 0.00 0.00 91 1014.9
20260507032441 43 6 0.0 0.0 0.00 0.00 0.00 91 1014.8
20260507031935 43 6 0.0 0.0 0.00 0.00 0.00 91 1014.8
20260507031430 43 6 0.0 0.0 0.00 0.00 0.00 91 1014.8
20260507030953 43 6 0.0 0.0 0.00 0.00 0.00 90 1014.6
20260507030923 43 6 0.0 0.0 0.00 0.00 0.00 90 1014.6
20260507030417 43 6 0.0 0.0 0.00 0.00 0.00 90 1014.7
20260507025953 43 6 0.0 0.0 0.00 0.00 0.00 90 1014.7
20260507025911 43 6 0.0 0.0 0.00 0.00 0.00 90 1014.7
20260507025405 43 6 0.0 0.0 0.00 0.00 0.00 90 1014.7
20260507024953 43 6 0.0 0.0 0.00 0.00 0.00 90 1014.6
20260507024859 43 6 0.0 0.0 0.00 0.00 0.00 90 1014.6
20260507024353 43 6 0.0 0.9 0.00 0.00 0.00 90 1014.6
20260507023954 43 6 0.0 0.9 0.00 0.00 0.00 90 1014.7
20260507023847 43 6 0.0 0.9 0.00 0.00 0.00 90 1014.7
20260507023342 43 6 0.0 0.0 0.00 0.00 0.00 90 1014.7
20260507022954 43 6 0.0 2.6 0.00 0.00 0.00 90 1014.6
20260507022835 43 6 0.0 2.6 0.00 0.00 0.00 90 1014.6
20260507022335 44 6 0.0 2.6 0.00 0.00 0.00 90 1014.6
20260507021955 44 6 0.0 0.9 0.00 0.00 0.00 90 1014.5
20260507021835 44 6 0.0 0.9 0.00 0.00 0.00 90 1014.5
20260507021334 44 6 0.0 1.7 0.00 0.00 0.00 90 1014.5
20260507020955 44 6 0.0 2.6 0.00 0.00 0.00 90 1014.5
20260507020832 44 6 0.9 2.6 0.00 0.00 0.00 90 1014.5
20260507020429 44 6 0.9 2.6 0.00 0.00 0.00 90 1014.3
20260507020331 44 6 0.9 2.6 0.00 0.00 0.00 90 1014.4
20260507015828 44 6 0.9 2.6 0.00 0.00 0.00 90 1014.3
20260507015329 44 6 0.9 2.6 0.00 0.00 0.00 90 1014.3
20260507014950 44 6 0.9 2.6 0.00 0.00 0.00 90 1014.2
20260507014828 44 6 0.9 2.6 0.00 0.00 0.00 90 1014.2
20260507014327 44 6 0.9 2.6 0.00 0.00 0.00 90 1014.1
20260507013948 44 6 0.9 2.6 0.00 0.00 0.00 90 1014.2
20260507013828 44 6 0.0 2.6 0.00 0.00 0.00 89 1014.2
20260507013429 44 6 0.9 3.5 0.00 0.00 0.00 89 1014.2
20260507013327 44 6 0.0 1.7 0.00 0.00 0.00 89 1014.3
20260507012825 44 6 0.9 3.5 0.00 0.00 0.00 89 1014.2
20260507012325 44 6 0.0 3.5 0.00 0.00 0.00 89 1014.2
20260507011949 44 4 0.0 0.0 0.00 0.00 0.00 89 1014.2
20260507011907 44 4 0.0 0.0 0.00 0.00 0.00 89 1014.3
20260507011825 44 4 0.0 0.0 0.00 0.00 0.00 89 1014.2
20260507011323 44 4 0.0 0.0 0.00 0.00 0.00 89 1014.2
20260507010820 44 4 0.0 0.0 0.00 0.00 0.00 89 1014.3
20260507010321 44 4 0.0 0.0 0.00 0.00 0.00 89 1014.2
20260507005947 44 4 0.0 0.0 0.00 0.00 0.00 89 1014.2
20260507005821 44 4 0.0 0.0 0.00 0.00 0.00 89 1014.2
20260507005321 44 4 0.0 0.0 0.00 0.00 0.00 89 1014.2
20260507004946 44 4 0.0 0.0 0.00 0.00 0.00 89 1014.2
20260507004815 44 4 0.0 0.0 0.00 0.00 0.00 89 1014.2
20260507004309 44 4 0.0 0.0 0.00 0.00 0.00 89 1014.2
20260507003946 44 4 0.0 0.0 0.00 0.00 0.00 88 1014.2
20260507003803 44 4 0.0 0.0 0.00 0.00 0.00 88 1014.2
20260507003256 44 4 0.0 0.0 0.00 0.00 0.00 88 1014.1
20260507002940 44 4 0.0 2.6 0.00 0.00 0.00 88 1014.2
20260507002913 44 4 0.9 2.6 0.00 0.00 0.00 88 1014.2
20260507002752 44 4 0.0 2.6 0.00 0.00 0.00 88 1014.2
20260507002251 44 4 0.9 2.6 0.00 0.00 0.00 88 1014.2
20260507001751 45 4 0.9 2.6 0.00 0.00 0.00 88 1014.2
20260507001252 45 32 0.0 1.7 0.00 0.00 0.00 88 1014.2
20260507000938 45 32 0.9 2.6 0.00 0.00 0.00 88 1014.1
20260507000748 45 41 0.9 2.6 0.00 0.00 0.00 88 1014.2
20260507000427 45 87 0.0 2.6 0.00 0.00 0.00 87 1014.3
20260507000248 45 41 0.9 2.6 0.00 0.00 0.00 87 1014.2
20260506235749 45 93 0.0 1.7 0.00 0.00 0.00 87 1014.2
20260506235248 45 104 0.0 1.7 0.00 0.00 0.00 87 1014.2
20260506234939 45 104 0.0 0.0 0.00 0.00 0.00 87 1014.2
20260506234749 45 104 0.0 0.0 0.00 0.00 0.00 87 1014.2
20260506234249 45 104 0.0 0.0 0.00 0.00 0.00 87 1014.3
20260506233937 45 104 0.0 0.0 0.00 0.00 0.00 86 1014.3
20260506233750 46 104 0.0 0.0 0.00 0.00 0.00 87 1014.3
20260506233247 46 104 0.0 0.0 0.00 0.00 0.00 86 1014.3
20260506232936 46 104 0.0 0.0 0.00 0.00 0.00 86 1014.2
20260506232748 46 104 0.0 0.0 0.00 0.00 0.00 86 1014.2
20260506232249 46 104 0.0 0.9 0.00 0.00 0.00 86 1014.2
20260506231932 46 104 0.0 0.9 0.00 0.00 0.00 86 1014.2
20260506231747 46 104 0.0 0.9 0.00 0.00 0.00 86 1014.2
20260506231249 46 104 0.0 0.9 0.00 0.00 0.00 86 1014.2
20260506230935 46 104 0.0 1.7 0.00 0.00 0.00 86 1014.2
20260506230747 46 104 0.0 1.7 0.00 0.00 0.00 86 1014.2
20260506230247 46 104 0.0 2.6 0.00 0.00 0.00 86 1014.2
20260506225933 46 104 0.9 2.6 0.00 0.00 0.00 86 1014.2
20260506225749 46 104 0.9 2.6 0.00 0.00 0.00 86 1014.1
20260506225248 46 106 0.9 1.7 0.00 0.00 0.00 86 1014.0
20260506224932 46 102 0.0 1.7 0.00 0.00 0.00 86 1014.1
20260506224747 46 102 0.0 1.7 0.00 0.00 0.00 86 1014.1
20260506224247 47 102 0.0 0.9 0.00 0.00 0.00 86 1014.0
20260506223933 47 102 0.0 1.7 0.00 0.00 0.00 86 1014.0
20260506223748 47 102 0.0 2.6 0.00 0.00 0.00 86 1014.0
20260506223248 47 101 0.9 2.6 0.00 0.00 0.00 86 1014.0
20260506222932 47 100 0.0 2.6 0.00 0.00 0.00 86 1014.0
20260506222748 47 102 0.0 1.7 0.00 0.00 0.00 86 1014.0
20260506222412 47 104 0.0 1.7 0.00 0.00 0.00 86 1014.1
20260506222248 47 104 0.0 0.9 0.00 0.00 0.00 86 1014.0
20260506221747 47 104 0.0 1.7 0.00 0.00 0.00 86 1014.0
20260506221247 47 104 0.9 1.7 0.00 0.00 0.00 86 1014.0
20260506220931 47 104 0.0 1.7 0.00 0.00 0.00 86 1013.9
20260506220747 47 100 0.9 1.7 0.00 0.00 0.00 86 1013.9
20260506220248 47 100 0.0 1.7 0.00 0.00 0.00 86 1013.8
20260506215930 47 104 0.9 1.7 0.00 0.00 0.00 86 1013.8
20260506215747 47 104 0.0 2.6 0.00 0.00 0.00 86 1013.8
20260506215248 48 106 0.9 2.6 0.00 0.00 0.00 86 1013.9
20260506214931 48 117 0.9 2.6 0.00 0.00 0.00 86 1013.8
20260506214850 48 75 0.0 2.6 0.00 0.00 0.00 86 1013.8
20260506214749 48 117 0.9 2.6 0.00 0.00 0.00 86 1013.9
20260506214242 48 75 0.0 2.6 0.00 0.00 0.00 86 1013.8
20260506213740 48 127 0.0 2.6 0.00 0.00 0.00 86 1013.8
20260506213242 48 68 0.0 0.0 0.00 0.00 0.00 86 1013.8
20260506212931 48 68 0.0 2.6 0.00 0.00 0.00 85 1013.8
20260506212740 48 68 0.9 2.6 0.00 0.00 0.00 85 1013.8
20260506212243 49 89 0.9 2.6 0.00 0.00 0.00 85 1013.7
20260506211934 49 87 0.9 2.6 0.00 0.00 0.00 85 1013.7
20260506211742 49 16 0.9 2.6 0.00 0.00 0.00 85 1013.6
20260506211241 49 35 0.9 2.6 0.00 0.00 0.00 85 1013.6
20260506210930 49 35 0.9 2.6 0.00 0.00 0.00 85 1013.6
20260506210740 49 35 0.9 2.6 0.00 0.00 0.00 85 1013.5
20260506210242 49 15 0.9 2.6 0.00 0.00 0.00 85 1013.5
20260506205931 49 14 0.9 2.6 0.00 0.00 0.00 84 1013.6
20260506205736 49 13 0.9 2.6 0.00 0.00 0.00 84 1013.6
20260506205237 49 65 0.9 3.5 0.00 0.00 0.00 84 1013.5
20260506204931 49 48 0.9 3.5 0.00 0.00 0.00 84 1013.5
20260506204738 50 50 0.9 3.5 0.00 0.00 0.00 84 1013.5
20260506204236 50 343 0.9 4.3 0.00 0.00 0.00 84 1013.5
20260506203931 50 341 0.9 4.3 0.00 0.00 0.00 84 1013.4
20260506203736 50 1 0.9 4.3 0.00 0.00 0.00 83 1013.4
20260506203238 50 113 1.7 4.3 0.00 0.00 0.00 83 1013.4
20260506202930 50 353 1.7 6.1 0.00 0.00 0.00 83 1013.4
20260506202739 50 343 1.7 6.1 0.00 0.00 0.00 83 1013.4
20260506202237 50 117 1.7 6.1 0.00 0.00 0.00 83 1013.4
20260506201930 50 58 1.7 3.5 0.00 0.00 0.00 82 1013.3
20260506201738 50 86 1.7 3.5 0.00 0.00 0.00 82 1013.4
20260506201232 50 88 1.7 4.3 0.00 0.00 0.00 82 1013.3
20260506200929 50 139 1.7 4.3 0.00 0.00 0.00 81 1013.3
20260506200725 50 351 1.7 4.3 0.00 0.00 0.00 81 1013.3
20260506200404 51 348 1.7 4.3 0.00 0.00 0.00 80 1013.2
20260506200219 51 105 1.7 4.3 0.00 0.00 0.00 81 1013.2
20260506195713 51 29 1.7 6.1 0.00 0.00 0.00 80 1013.1
20260506195212 51 352 1.7 6.1 0.00 0.00 0.00 79 1013.1
20260506194930 51 6 1.7 6.1 0.00 0.00 0.00 79 1013.0
20260506194712 51 41 1.7 6.1 0.00 0.00 0.00 79 1013.0
20260506194210 51 52 1.7 6.1 0.00 0.00 0.00 78 1013.0
20260506193929 51 347 1.7 6.1 0.00 0.00 0.00 78 1012.9
20260506193711 51 14 1.7 7.0 0.00 0.00 0.00 77 1012.8
20260506193212 51 64 2.6 7.0 0.00 0.00 0.00 77 1012.7
20260506192926 51 91 2.6 7.0 0.00 0.00 0.00 77 1012.8
20260506192709 51 35 1.7 6.1 0.00 0.00 0.00 76 1012.7
20260506192209 52 50 2.6 7.8 0.00 0.00 0.00 76 1012.7
20260506191924 52 169 2.6 7.8 0.00 0.00 0.00 76 1012.6
20260506191709 52 64 2.6 7.8 0.00 0.00 0.00 76 1012.6
20260506191208 52 48 2.6 7.0 0.00 0.00 0.00 76 1012.5
20260506190924 52 27 2.6 7.0 0.00 0.00 0.00 75 1012.4
20260506190850 53 137 2.6 8.7 0.00 0.00 0.00 73 1012.4
20260506190708 52 152 2.6 8.7 0.00 0.00 0.00 75 1012.5
20260506190209 53 14 1.7 8.7 0.00 0.00 0.00 74 1012.4
20260506185837 53 110 2.6 7.0 0.00 0.00 0.00 72 1012.3
20260506185706 53 110 1.7 7.8 0.00 0.00 0.00 73 1012.3
20260506185216 53 97 2.6 7.8 0.00 0.00 0.00 72 1012.3
20260506184705 53 156 2.6 7.8 0.00 0.00 0.00 72 1012.2
20260506184206 54 35 2.6 7.8 0.00 0.00 0.00 71 1012.3
20260506183923 54 296 2.6 7.8 0.00 0.00 0.00 71 1012.2
20260506183706 54 49 2.6 7.8 0.00 0.00 0.00 71 1012.2
20260506183204 54 18 2.6 7.8 0.00 0.00 0.00 69 1012.2
20260506182928 54 163 2.6 7.8 0.00 0.00 0.00 69 1012.2
20260506182659 55 354 2.6 7.8 0.00 0.00 0.00 68 1012.1
20260506182153 55 122 2.6 7.8 0.00 0.00 0.00 68 1012.0
20260506181924 55 156 2.6 7.0 0.00 0.00 0.00 68 1012.0
20260506181647 55 23 2.6 7.0 0.00 0.00 0.00 67 1012.0
20260506181141 55 58 2.6 8.7 0.00 0.00 0.00 66 1012.0
20260506180925 55 88 2.6 8.7 0.00 0.00 0.00 66 1012.0
20260506180635 55 141 2.6 8.7 0.00 0.00 0.00 66 1011.9
20260506180129 55 127 2.6 8.7 0.00 0.00 0.00 66 1012.0
20260506175924 56 41 2.6 8.7 0.00 0.00 0.00 66 1011.8
20260506175623 55 30 2.6 8.7 0.00 0.00 0.00 66 1011.9
20260506175359 55 117 3.5 8.7 0.00 0.00 0.00 65 1011.8
20260506175202 55 75 3.5 8.7 0.00 0.00 0.00 65 1011.9
20260506174611 55 41 3.5 8.7 0.00 0.00 0.00 65 1011.8
20260506174357 56 13 2.6 8.7 0.00 0.00 0.00 66 1011.6
20260506174200 55 105 2.6 7.8 0.00 0.00 0.00 66 1011.7
20260506173558 56 117 2.6 8.7 0.00 0.00 0.00 65 1011.6
20260506173053 56 181 3.5 8.7 0.00 0.00 0.00 65 1011.5
20260506172921 56 93 3.5 8.7 0.00 0.00 0.00 65 1011.5
20260506172547 56 45 3.5 8.7 0.00 0.00 0.00 65 1011.4
20260506172041 56 31 3.5 9.6 0.00 0.00 0.00 65 1011.6
20260506171919 56 75 3.5 9.6 0.00 0.00 0.00 65 1011.4
20260506171536 56 168 2.6 9.6 0.00 0.00 0.00 64 1011.4
20260506171031 56 110 3.5 9.6 0.00 0.00 0.00 64 1011.4
20260506170918 56 18 3.5 9.6 0.00 0.00 0.00 64 1011.3
20260506170523 56 42 3.5 9.6 0.00 0.00 0.00 64 1011.4
20260506170017 56 19 3.5 7.8 0.00 0.00 0.00 65 1011.2
20260506165918 56 1 2.6 9.6 0.00 0.00 0.00 64 1011.2
20260506165511 56 91 2.6 9.6 0.00 0.00 0.00 65 1011.3
20260506165005 56 112 2.6 7.8 0.00 0.00 0.00 64 1011.2
20260506164919 56 110 2.6 7.0 0.00 0.00 0.00 64 1011.3
20260506164459 57 144 2.6 6.1 0.00 0.00 0.00 65 1011.1
20260506163953 57 302 3.5 7.8 0.00 0.00 0.00 65 1011.2
20260506163921 57 12 3.5 7.8 0.00 0.00 0.00 65 1011.2
20260506163447 57 83 3.5 7.8 0.00 0.00 0.00 65 1011.1
20260506162941 57 57 2.6 8.7 0.00 0.00 0.00 65 1011.0
20260506162917 57 76 2.6 8.7 0.00 0.00 0.00 65 1011.0
20260506162435 57 71 3.5 13.0 0.00 0.00 0.00 65 1011.0
20260506161929 58 334 3.5 13.0 0.00 0.00 0.00 64 1011.1
20260506161918 58 85 3.5 13.0 0.00 0.00 0.00 64 1011.1
20260506161422 58 86 3.5 11.3 0.00 0.00 0.00 64 1011.0
20260506160918 58 150 3.5 10.4 0.00 0.00 0.00 64 1011.0
20260506160411 59 117 3.5 12.2 0.00 0.00 0.00 65 1011.1
20260506155912 58 202 3.5 12.2 0.00 0.00 0.00 65 1011.0
20260506155905 58 81 3.5 12.2 0.00 0.00 0.00 65 1011.0
20260506155359 59 154 3.5 9.6 0.00 0.00 0.00 66 1011.1
20260506154912 59 137 3.5 9.6 0.00 0.00 0.00 65 1011.0
20260506154853 59 356 3.5 9.6 0.00 0.00 0.00 65 1011.0
20260506154354 59 127 4.3 10.4 0.00 0.00 0.00 65 1011.0
20260506154347 59 68 3.5 8.7 0.00 0.00 0.00 65 1011.0
20260506153842 59 86 3.5 10.4 0.00 0.00 0.00 66 1010.9
20260506153342 59 13 3.5 10.4 0.00 0.00 0.00 65 1010.9
20260506152911 59 155 3.5 9.6 0.00 0.00 0.00 65 1010.9
20260506152846 59 73 3.5 9.6 0.00 0.00 0.00 65 1010.9
20260506152342 59 49 3.5 9.6 0.00 0.00 0.00 65 1010.9
20260506151913 59 355 3.5 10.4 0.00 0.00 0.00 67 1010.8
20260506151840 59 44 3.5 10.4 0.00 0.00 0.00 67 1010.9
20260506151341 59 86 3.5 10.4 0.00 0.00 0.00 67 1010.8
20260506150911 58 358 3.5 8.7 0.00 0.00 0.00 68 1010.8
20260506150840 58 19 3.5 8.7 0.00 0.00 0.00 67 1010.8
20260506150340 58 64 4.3 9.6 0.00 0.00 0.00 68 1010.9
20260506145911 58 139 4.3 10.4 0.00 0.00 0.00 68 1010.8
20260506145841 58 172 4.3 10.4 0.00 0.00 0.00 68 1010.9
20260506145407 58 31 3.5 9.6 0.00 0.00 0.00 67 1010.9
20260506145344 58 108 4.3 10.4 0.00 0.00 0.00 67 1010.9
20260506144839 58 358 3.5 9.6 0.00 0.00 0.00 67 1010.9
20260506144339 58 127 3.5 12.2 0.00 0.00 0.00 66 1010.9
20260506143911 59 152 4.3 12.2 0.00 0.00 0.00 65 1010.8
20260506143842 59 333 4.3 12.2 0.00 0.00 0.00 65 1010.8
20260506143824 59 81 3.5 10.4 0.00 0.00 0.00 65 1010.7
20260506143337 59 87 4.3 10.4 0.00 0.00 0.00 65 1010.6
20260506142839 59 177 4.3 10.4 0.00 0.00 0.00 65 1010.7
20260506142339 59 152 3.5 10.4 0.00 0.00 0.00 65 1010.7
20260506141912 58 171 3.5 10.4 0.00 0.00 0.00 66 1010.6
20260506141833 58 143 3.5 10.4 0.00 0.00 0.00 66 1010.7
20260506141400 58 25 3.5 7.8 0.00 0.00 0.00 66 1010.7
20260506141335 58 54 3.5 7.8 0.00 0.00 0.00 65 1010.8
20260506140833 58 166 3.5 7.8 0.00 0.00 0.00 66 1010.7
20260506140335 58 151 3.5 9.6 0.00 0.00 0.00 66 1010.7
20260506135912 58 54 3.5 9.6 0.00 0.00 0.00 67 1010.7
20260506135834 58 38 3.5 9.6 0.00 0.00 0.00 66 1010.7
20260506135334 58 133 3.5 12.2 0.00 0.00 0.00 65 1010.6
20260506134912 58 93 3.5 12.2 0.00 0.00 0.00 65 1010.7
20260506134838 58 86 3.5 12.2 0.00 0.00 0.00 65 1010.6
20260506134335 58 21 3.5 12.2 0.00 0.00 0.00 65 1010.7
20260506133912 58 12 4.3 12.2 0.00 0.00 0.00 63 1010.7
20260506133838 58 100 3.5 12.2 0.00 0.00 0.00 63 1010.7
20260506133335 58 14 3.5 12.2 0.00 0.00 0.00 64 1010.7
20260506132910 59 131 3.5 9.6 0.00 0.00 0.00 65 1010.6
20260506132833 59 122 3.5 12.2 0.00 0.00 0.00 65 1010.6
20260506132334 58 107 3.5 12.2 0.00 0.00 0.00 65 1010.6
20260506131910 58 93 3.5 12.2 0.00 0.00 0.00 66 1010.5
20260506131833 58 52 2.6 8.7 0.00 0.00 0.00 66 1010.4
20260506131334 59 107 2.6 9.6 0.00 0.00 0.00 69 1010.5
20260506130911 58 143 3.5 12.2 0.00 0.00 0.00 68 1010.5
20260506130835 58 127 3.5 12.2 0.00 0.00 0.00 69 1010.5
20260506130332 58 6 4.3 12.2 0.00 0.00 0.00 70 1010.5
20260506125911 58 135 4.3 11.3 0.00 0.00 0.00 68 1010.5
20260506125832 58 20 4.3 11.3 0.00 0.00 0.00 68 1010.5
20260506125332 58 105 3.5 9.6 0.00 0.00 0.00 69 1010.5
20260506124909 58 64 3.5 13.0 0.00 0.00 0.00 69 1010.4
20260506124826 58 156 4.3 13.0 0.00 0.00 0.00 69 1010.5
20260506124319 58 50 3.5 13.0 0.00 0.00 0.00 69 1010.5
20260506123908 58 8 3.5 8.7 0.00 0.00 0.00 69 1010.4
20260506123814 58 95 3.5 8.7 0.00 0.00 0.00 69 1010.5
20260506123308 58 148 2.6 7.8 0.00 0.00 0.00 69 1010.5
20260506122913 58 117 2.6 7.8 0.00 0.00 0.00 68 1010.5
20260506122805 58 40 2.6 8.7 0.00 0.00 0.00 68 1010.5
20260506122306 58 143 3.5 9.6 0.00 0.00 0.00 67 1010.3
20260506121910 58 181 3.5 9.6 0.00 0.00 0.00 66 1010.4
20260506121807 58 122 3.5 9.6 0.00 0.00 0.00 65 1010.4
20260506121307 58 90 3.5 9.6 0.00 0.00 0.00 65 1010.3
20260506120908 58 81 2.6 9.6 0.00 0.00 0.00 66 1010.3
20260506120803 58 144 2.6 9.6 0.00 0.00 0.00 66 1010.4
20260506120301 58 167 2.6 9.6 0.00 0.00 0.00 66 1010.3
20260506115906 58 127 3.5 8.7 0.00 0.00 0.00 68 1010.3
20260506115801 58 25 3.5 10.4 0.00 0.00 0.00 69 1010.4
20260506115300 58 6 3.5 10.4 0.00 0.00 0.00 67 1010.3
20260506114911 58 147 3.5 10.4 0.00 0.00 0.00 66 1010.3
20260506114759 58 337 3.5 9.6 0.00 0.00 0.00 67 1010.4
20260506114300 58 107 2.6 8.7 0.00 0.00 0.00 67 1010.3
20260506113907 58 18 2.6 12.2 0.00 0.00 0.00 67 1010.3
20260506113801 58 106 2.6 12.2 0.00 0.00 0.00 67 1010.3
20260506113300 58 62 3.5 12.2 0.00 0.00 0.00 68 1010.3
20260506112907 58 111 3.5 11.3 0.00 0.00 0.00 68 1010.4
20260506112800 58 107 3.5 11.3 0.00 0.00 0.00 68 1010.4
20260506112300 58 127 3.5 11.3 0.00 0.00 0.00 66 1010.3
20260506111907 58 140 3.5 9.6 0.00 0.00 0.00 66 1010.3
20260506111759 58 147 3.5 9.6 0.00 0.00 0.00 66 1010.3
20260506111300 58 141 3.5 9.6 0.00 0.00 0.00 64 1010.3
20260506110904 58 113 3.5 9.6 0.00 0.00 0.00 64 1010.3
20260506110800 58 63 3.5 9.6 0.00 0.00 0.00 64 1010.2
20260506110253 58 96 3.5 9.6 0.00 0.00 0.00 66 1010.3
20260506105905 58 167 3.5 9.6 0.00 0.00 0.00 65 1010.4
20260506105830 58 46 3.5 13.9 0.00 0.00 0.00 66 1010.3
20260506105746 58 90 3.5 9.6 0.00 0.00 0.00 66 1010.4
20260506105240 58 103 3.5 13.9 0.00 0.00 0.00 65 1010.4
20260506104734 58 93 3.5 13.9 0.00 0.00 0.00 67 1010.3
20260506104228 58 187 3.5 9.6 0.00 0.00 0.00 66 1010.3
20260506103908 58 117 3.5 9.6 0.00 0.00 0.00 66 1010.3
20260506103722 58 145 3.5 10.4 0.00 0.00 0.00 65 1010.3
20260506103216 58 145 3.5 10.4 0.00 0.00 0.00 67 1010.3
20260506102859 58 135 3.5 10.4 0.00 0.00 0.00 68 1010.3
20260506102710 57 117 2.6 8.7 0.00 0.00 0.00 69 1010.3
20260506102204 57 91 3.5 9.6 0.00 0.00 0.00 69 1010.3
20260506101859 57 70 3.5 9.6 0.00 0.00 0.00 69 1010.3
20260506101658 57 68 3.5 9.6 0.00 0.00 0.00 68 1010.3
20260506101514 57 6 2.6 7.8 0.00 0.00 0.00 71 1010.3
20260506101407 56 143 3.5 7.8 0.00 0.00 0.00 72 1010.2
20260506101334 57 117 2.6 7.8 0.00 0.00 0.00 70 1010.3
20260506100646 57 89 2.6 7.8 0.00 0.00 0.00 71 1010.3
20260506100143 56 97 3.5 7.8 0.00 0.00 0.00 73 1010.3
20260506095634 56 131 2.6 7.8 0.00 0.00 0.00 73 1010.2
20260506095127 56 338 2.6 7.0 0.00 0.00 0.00 74 1010.2
20260506094900 56 127 2.6 7.0 0.00 0.00 0.00 75 1010.2
20260506094622 56 347 2.6 7.0 0.00 0.00 0.00 75 1010.2
20260506094116 55 159 2.6 7.0 0.00 0.00 0.00 75 1010.2
20260506093900 55 6 2.6 7.0 0.00 0.00 0.00 75 1010.3
20260506093612 55 38 1.7 7.0 0.00 0.00 0.00 75 1010.2
20260506093104 55 117 2.6 7.0 0.00 0.00 0.00 76 1010.2
20260506092900 55 50 2.6 7.0 0.00 0.00 0.00 75 1010.2
20260506092558 55 68 3.5 10.4 0.00 0.00 0.00 75 1010.2
20260506092052 55 146 2.6 10.4 0.00 0.00 0.00 74 1010.2
20260506091900 55 131 2.6 10.4 0.00 0.00 0.00 74 1010.2
20260506091546 55 56 3.5 9.6 0.00 0.00 0.00 75 1010.1
20260506091040 55 254 3.5 9.6 0.00 0.00 0.00 73 1010.1
20260506090904 55 190 2.6 9.6 0.00 0.00 0.00 73 1010.1
20260506090534 55 117 2.6 9.6 0.00 0.00 0.00 74 1010.2
20260506090028 56 139 2.6 9.6 0.00 0.00 0.00 74 1010.1
20260506085856 56 132 2.6 9.6 0.00 0.00 0.00 73 1010.1
20260506085522 56 76 3.5 10.4 0.00 0.00 0.00 73 1010.1
20260506085016 56 110 3.5 10.4 0.00 0.00 0.00 73 1010.1
20260506084856 56 73 3.5 10.4 0.00 0.00 0.00 73 1010.1
20260506084814 56 65 2.6 8.7 0.00 0.00 0.00 73 1009.9
20260506084610 56 106 3.5 9.6 0.00 0.00 0.00 73 1010.0
20260506084131 56 97 3.5 8.7 0.00 0.00 0.00 72 1010.0
20260506083500 56 56 2.6 7.0 0.00 0.00 0.00 74 1010.0
20260506082952 56 53 2.6 7.0 0.00 0.00 0.00 76 1009.9
20260506082856 56 104 2.6 7.0 0.00 0.00 0.00 77 1009.9
20260506082453 56 91 2.6 7.0 0.00 0.00 0.00 77 1009.9
20260506081940 56 95 2.6 7.0 0.00 0.00 0.00 76 1010.0
20260506081854 56 95 2.6 7.0 0.00 0.00 0.00 76 1010.0
20260506081434 56 102 2.6 7.8 0.00 0.00 0.00 75 1009.9
20260506080928 56 98 2.6 7.8 0.00 0.00 0.00 76 1009.9
20260506080854 56 111 2.6 7.8 0.00 0.00 0.00 76 1009.9
20260506080822 55 85 2.6 8.7 0.00 0.00 0.00 76 1009.8
20260506080602 56 33 2.6 8.7 0.00 0.00 0.00 77 1009.8
20260506080113 55 27 3.5 8.7 0.00 0.00 0.00 76 1009.8